TimeAKST,TemperatureF,Dew PointF,Humidity,Sea Level PressureIn,VisibilityMPH,Wind Direction,Wind SpeedMPH,Gust SpeedMPH,PrecipitationIn,Events,Conditions,WindDirDegrees,DateUTC
12:16 AM,19.4,-2.2,39,30.51,10.0,NNE,8.1,20.7,N/A,,Clear,20,2012-01-15 09:16:00
12:36 AM,19.4,-2.2,39,30.52,10.0,NNW,6.9,-,N/A,,Clear,340,2012-01-15 09:36:00
12:56 AM,17.6,-2.2,42,30.51,10.0,NNW,12.7,-,N/A,,Clear,340,2012-01-15 09:56:00
1:16 AM,19.4,-4.0,36,30.52,10.0,North,13.8,18.4,N/A,,Clear,10,2012-01-15 10:16:00
1:36 AM,19.4,-5.8,33,30.52,10.0,North,12.7,-,N/A,,Clear,360,2012-01-15 10:36:00
1:56 AM,19.4,-7.6,30,30.53,10.0,North,16.1,21.9,N/A,,Clear,10,2012-01-15 10:56:00
2:16 AM,19.4,-7.6,30,30.53,10.0,North,10.4,16.1,N/A,,Clear,10,2012-01-15 11:16:00
2:36 AM,19.4,-7.6,30,30.53,10.0,North,12.7,20.7,N/A,,Clear,10,2012-01-15 11:36:00
2:56 AM,19.4,-7.6,30,30.53,10.0,North,10.4,-,N/A,,Clear,10,2012-01-15 11:56:00
3:16 AM,19.4,-7.6,30,30.53,10.0,NNE,10.4,17.3,N/A,,Clear,20,2012-01-15 12:16:00
3:36 AM,19.4,-7.6,30,30.53,10.0,North,9.2,-,N/A,,Clear,10,2012-01-15 12:36:00
3:56 AM,19.4,-7.6,30,30.54,10.0,NNE,13.8,17.3,N/A,,Clear,20,2012-01-15 12:56:00
4:16 AM,19.4,-7.6,30,30.53,10.0,North,6.9,-,N/A,,Clear,10,2012-01-15 13:16:00
4:36 AM,19.4,-7.6,30,30.53,10.0,North,13.8,25.3,N/A,,Clear,10,2012-01-15 13:36:00
4:56 AM,19.4,-9.4,28,30.53,10.0,NNE,11.5,20.7,N/A,,Clear,20,2012-01-15 13:56:00
5:16 AM,19.4,-9.4,28,30.53,10.0,North,12.7,18.4,N/A,,Clear,10,2012-01-15 14:16:00
5:36 AM,19.4,-9.4,28,30.53,10.0,NNW,15.0,18.4,N/A,,Clear,340,2012-01-15 14:36:00
5:56 AM,19.4,-9.4,28,30.53,10.0,North,11.5,-,N/A,,Clear,350,2012-01-15 14:56:00
6:16 AM,21.2,-9.4,26,30.53,10.0,North,8.1,-,N/A,,Clear,350,2012-01-15 15:16:00
6:36 AM,19.4,-9.4,28,30.53,10.0,North,9.2,-,N/A,,Clear,10,2012-01-15 15:36:00
7:16 AM,21.2,-9.4,26,30.54,10.0,North,13.8,23.0,N/A,,Clear,360,2012-01-15 16:16:00
7:36 AM,19.4,-11.2,25,30.55,10.0,North,11.5,20.7,N/A,,Clear,360,2012-01-15 16:36:00
7:56 AM,19.4,-11.2,25,30.55,10.0,North,11.5,18.4,N/A,,Clear,10,2012-01-15 16:56:00
8:16 AM,19.4,-11.2,25,30.56,10.0,North,11.5,17.3,N/A,,Clear,10,2012-01-15 17:16:00
8:36 AM,19.4,-11.2,25,30.57,10.0,North,12.7,18.4,N/A,,Clear,360,2012-01-15 17:36:00
8:56 AM,19.4,-11.2,25,30.57,10.0,North,12.7,19.6,N/A,,Clear,360,2012-01-15 17:56:00
9:16 AM,19.4,-11.2,25,30.57,10.0,North,11.5,17.3,N/A,,Clear,360,2012-01-15 18:16:00
9:36 AM,19.4,-11.2,25,30.57,10.0,NNE,16.1,24.2,N/A,,Clear,20,2012-01-15 18:36:00
9:56 AM,19.4,-9.4,28,30.59,6.0,NNE,18.4,25.3,N/A,,Clear,20,2012-01-15 18:56:00
10:16 AM,19.4,-9.4,28,30.60,10.0,NNE,18.4,26.5,N/A,,Clear,20,2012-01-15 19:16:00
10:36 AM,19.4,-9.4,28,30.60,10.0,NNE,21.9,28.8,N/A,,Clear,30,2012-01-15 19:36:00
10:56 AM,19.4,-9.4,28,30.60,10.0,NNE,16.1,27.6,N/A,,Clear,20,2012-01-15 19:56:00
11:16 AM,19.4,-9.4,28,30.61,10.0,NNE,15.0,26.5,N/A,,Clear,20,2012-01-15 20:16:00
11:36 AM,19.4,-9.4,28,30.61,10.0,NNE,17.3,26.5,N/A,,Clear,20,2012-01-15 20:36:00
11:56 AM,19.4,-9.4,28,30.61,10.0,NNE,20.7,31.1,N/A,,Clear,30,2012-01-15 20:56:00
12:16 PM,19.4,-9.4,28,30.61,10.0,NNE,17.3,20.7,N/A,,Clear,30,2012-01-15 21:16:00
12:36 PM,19.4,-9.4,28,30.61,10.0,NNE,15.0,25.3,N/A,,Clear,30,2012-01-15 21:36:00
12:56 PM,19.4,-9.4,28,30.61,10.0,NNE,18.4,26.5,N/A,,Clear,30,2012-01-15 21:56:00
1:16 PM,19.4,-9.4,28,30.61,10.0,NNE,18.4,26.5,N/A,,Clear,30,2012-01-15 22:16:00
1:36 PM,19.4,-9.4,28,30.60,10.0,NNE,16.1,24.2,N/A,,Clear,30,2012-01-15 22:36:00
1:56 PM,19.4,-9.4,28,30.60,10.0,NE,16.1,27.6,N/A,,Clear,40,2012-01-15 22:56:00
2:16 PM,19.4,-9.4,28,30.61,10.0,NNE,18.4,27.6,N/A,,Clear,30,2012-01-15 23:16:00
2:36 PM,19.4,-9.4,28,30.61,10.0,NNE,18.4,26.5,N/A,,Clear,30,2012-01-15 23:36:00
2:56 PM,17.6,-11.2,27,30.61,10.0,NNE,19.6,27.6,N/A,,Clear,30,2012-01-15 23:56:00
3:16 PM,17.6,-11.2,27,30.61,10.0,NNE,16.1,21.9,N/A,,Clear,30,2012-01-16 00:16:00
3:36 PM,17.6,-11.2,27,30.61,10.0,North,10.4,20.7,N/A,,Clear,10,2012-01-16 00:36:00
3:56 PM,17.6,-11.2,27,30.61,10.0,NNE,12.7,24.2,N/A,,Clear,20,2012-01-16 00:56:00
4:16 PM,17.6,-11.2,27,30.61,10.0,NNE,18.4,26.5,N/A,,Clear,30,2012-01-16 01:16:00
4:36 PM,17.6,-11.2,27,30.61,10.0,NNE,24.2,32.2,N/A,,Clear,30,2012-01-16 01:36:00
4:56 PM,15.8,-11.2,30,30.62,10.0,NNE,24.2,32.2,N/A,,Clear,20,2012-01-16 01:56:00
5:16 PM,15.8,-11.2,30,30.61,10.0,North,21.9,31.1,N/A,,Clear,10,2012-01-16 02:16:00
5:36 PM,15.8,-11.2,30,30.61,10.0,North,18.4,31.1,N/A,,Clear,10,2012-01-16 02:36:00
5:56 PM,15.8,-11.2,30,30.62,10.0,NNE,25.3,36.8,N/A,,Clear,20,2012-01-16 02:56:00
6:16 PM,15.8,-11.2,30,30.62,10.0,NNE,20.7,31.1,N/A,,Clear,20,2012-01-16 03:16:00
6:36 PM,15.8,-11.2,30,30.63,10.0,North,19.6,27.6,N/A,,Clear,10,2012-01-16 03:36:00
6:56 PM,15.8,-13.0,27,30.64,10.0,NNE,19.6,28.8,N/A,,Clear,20,2012-01-16 03:56:00
7:16 PM,14.0,-13.0,29,30.64,10.0,North,18.4,27.6,N/A,,Clear,10,2012-01-16 04:16:00
7:36 PM,14.0,-13.0,29,30.64,10.0,NNE,12.7,25.3,N/A,,Clear,20,2012-01-16 04:36:00
8:16 PM,14.0,-9999,N/A,30.64,10.0,NNE,13.8,24.2,N/A,,Clear,20,2012-01-16 05:16:00
8:36 PM,14.0,-13.0,29,30.64,10.0,NNE,10.4,20.7,N/A,,Clear,30,2012-01-16 05:36:00
8:56 PM,14.0,-14.8,27,30.65,10.0,NNE,15.0,24.2,N/A,,Clear,30,2012-01-16 05:56:00
9:16 PM,14.0,-14.8,27,30.65,10.0,North,13.8,25.3,N/A,,Clear,10,2012-01-16 06:16:00
9:36 PM,14.0,-14.8,27,30.65,10.0,North,13.8,20.7,N/A,,Clear,10,2012-01-16 06:36:00
9:56 PM,14.0,-14.8,27,30.64,10.0,NNE,13.8,20.7,N/A,,Clear,20,2012-01-16 06:56:00
10:16 PM,12.2,-14.8,29,30.65,10.0,NNE,11.5,20.7,N/A,,Clear,20,2012-01-16 07:16:00
10:36 PM,12.2,-14.8,29,30.65,10.0,NNE,10.4,-,N/A,,Clear,20,2012-01-16 07:36:00
10:56 PM,12.2,-14.8,29,30.65,10.0,NNE,12.7,-,N/A,,Clear,20,2012-01-16 07:56:00
11:16 PM,12.2,-14.8,29,30.64,10.0,NNE,9.2,-,N/A,,Clear,20,2012-01-16 08:16:00
11:36 PM,12.2,-14.8,29,30.64,10.0,North,9.2,-,N/A,,Clear,10,2012-01-16 08:36:00
11:56 PM,12.2,-14.8,29,30.64,10.0,North,10.4,-,N/A,,Clear,10,2012-01-16 08:56:00